Date,TemperatureHighF,TemperatureAvgF,TemperatureLowF,DewpointHighF,DewpointAvgF,DewpointLowF,HumidityHigh,HumidityAvg,HumidityLow,PressureMaxIn,PressureMinIn,WindSpeedMaxMPH,WindSpeedAvgMPH,GustSpeedMaxMPH,PrecipitationSumIn
2013-5-1,73,58,45,64,50,37,75,74,70,30.09,29.95,10,5,17,0.00
2013-5-2,78,62,46,47,42,37,87,53,23,30.08,29.94,9,4,15,0.00
2013-5-3,70,59,46,43,36,21,86,46,16,30.06,29.95,10,6,17,0.00
2013-5-4,75,58,43,47,42,36,100,62,25,29.99,29.82,11,5,15,0.00
2013-5-5,72,54,40,46,35,16,100,57,22,29.91,29.81,10,5,17,0.00
2013-5-6,74,57,41,41,27,13,31,31,31,29.88,29.76,8,4,16,0.00
2013-5-7,78,64,50,44,32,20,31,31,31,29.79,29.70,11,5,21,0.00
2013-5-8,72,61,55,40,30,25,31,31,31,29.73,29.58,10,5,16,0.00
2013-5-9,70,59,52,38,28,23,31,31,31,29.62,29.54,7,3,11,0.00
2013-5-10,84,68,55,62,43,25,100,43,31,29.65,29.54,10,4,17,0.00
2013-5-11,72,64,60,69,62,57,100,96,80,29.57,29.36,10,6,17,0.00
2013-5-12,65,57,45,57,40,25,97,58,25,29.57,29.33,18,10,27,0.00
2013-5-13,54,46,38,35,30,24,89,57,32,29.74,29.57,14,8,26,0.00
2013-5-14,64,50,36,44,36,30,90,61,46,29.77,29.65,12,5,18,0.00
2013-5-15,75,59,48,60,46,30,83,63,46,29.69,29.33,13,6,24,0.00
2013-5-16,85,71,58,61,52,39,88,56,25,29.51,29.38,13,5,18,0.00
2013-5-17,76,63,51,46,42,37,76,49,27,29.84,29.51,11,5,17,0.00
2013-5-18,64,58,53,57,50,42,100,78,55,29.93,29.83,7,4,11,0.00
2013-5-19,60,56,54,60,56,53,99,99,99,29.92,29.79,10,6,14,0.00
2013-5-20,82,68,56,70,63,55,100,87,63,29.81,29.62,7,4,13,0.00
2013-5-21,90,75,66,74,70,65,100,85,57,29.64,29.50,10,5,16,0.00
2013-5-22,86,75,68,77,71,67,100,90,70,29.57,29.47,12,6,16,0.00
2013-5-23,80,69,61,74,68,61,100,96,77,29.55,29.40,13,6,29,0.00
2013-5-24,61,52,46,61,52,46,100,98,89,29.62,29.36,17,9,29,0.00
2013-5-25,55,50,48,48,43,36,99,78,53,29.65,29.56,25,15,40,0.00
2013-5-26,67,55,44,41,37,31,87,55,27,29.84,29.62,21,11,34,0.00
2013-5-27,77,62,48,43,37,31,60,40,20,29.88,29.77,9,4,14,0.00
2013-5-28,62,57,54,57,51,41,100,84,47,29.85,29.75,6,3,9,0.00
2013-5-29,86,71,56,72,64,56,99,83,58,29.76,29.67,11,4,16,0.00
2013-5-30,93,82,72,71,67,60,87,62,35,29.81,29.73,7,4,11,0.00
2013-5-31,93,83,73,74,68,54,84,62,39,29.80,29.67,9,5,14,0.00